Dati Storici

Data ora Umidita' aria (%) Temperatura aria (°C) Rad globale (W/m²) Gonioanemometro (°) Tacoanemometro (m/s) Pioggia (mm)
12-06-2020 03:30 97.8 % 14.293 -74.003 0.009 0 0
12-06-2020 03:20 97.8 % 14.461 -80.616 0.01 0 0
12-06-2020 03:10 97.8 % 14.644 -65.413 0.01 0 0
12-06-2020 03:00 97.8 % 14.785 -82.724 0.009 0 0
12-06-2020 02:50 97.8 % 14.832 -52.003 0.011 0 0
12-06-2020 02:40 97.8 % 14.818 -82.78 0.011 0 0
12-06-2020 02:30 97.8 % 15.04 -78.949 0.011 0 0
12-06-2020 02:20 97.8 % 15.278 -51.758 0.01 0 0
12-06-2020 02:10 97.8 % 15.181 -37.169 0.008 0 0
12-06-2020 02:00 97.8 % 15.255 -82.244 0.008 0 0
12-06-2020 01:50 97.8 % 15.185 -80.845 0.011 0 0
12-06-2020 01:40 97.8 % 15.231 -30.706 0.008 0 0
12-06-2020 01:30 97.8 % 15.272 -74.284 0.006 0 0
12-06-2020 01:20 97.8 % 15.313 -73.701 0.007 0 0
12-06-2020 01:10 97.8 % 15.239 -79.645 0.007 0 0
12-06-2020 01:00 97.8 % 15.3 -78.588 0.006 0 0
12-06-2020 00:50 97.8 % 15.557 -69.514 0.007 0 0
12-06-2020 00:40 97.8 % 15.534 -72.645 0.008 0 0
12-06-2020 00:30 97.7 % 15.329 -36.995 0.009 0 0
12-06-2020 00:20 97.7 % 15.562 -38.119 0.004 0 0

I dati sono presentati in modo automatico a scopo informativo. In seguito a verifica i dati possono subire modifiche o essere invalidati e non riportati negli archivi definitivi.